Weather History for KAPY - January, 2012

Change the Weather History Date:

Friday, January 13, 2012

  Actual Average (KLRD) Record (KLRD)
Temperature  
Mean Temperature 42 °F 56 °F  
Max Temperature 59 °F 67 °F 93 °F (1914)
Min Temperature 26 °F 46 °F 19 °F (1975)
Degree Days  
Heating Degree Days 22 10  
Month to date heating degree days 130  
Since 1 July heating degree days 520  
Cooling Degree Days 0 1  
Month to date cooling degree days 13  
Year to date cooling degree days 13  
Moisture  
Dew Point 20 °F    
Average Humidity 49    
Maximum Humidity 86    
Minimum Humidity 17    
Precipitation  
Precipitation 0.00 in 0.03 in 1.20 in (1903)
Month to date precipitation 0.38  
Year to date precipitation 0.38  
Sea Level Pressure  
Sea Level Pressure 30.29 in    
Wind  
Wind Speed 1 mph (SE)    
Max Wind Speed 7 mph    
Max Gust Speed -    
Visibility 10 miles    
Events      
T = Trace of Precipitation, MM = Missing Value Source: NWS Daily Summary

Daily Weather History Graph

Daily Weather History Graph

Search for Another Location

Airport or City:

Trip Planner

Search our weather history database for the weather conditions in past years. The results will help you decide how hot, cold, wet, or windy it might be!

Date:

Astronomy

Jan. 13, 2012 Rise Set
Actual Time 7:27 AM CST 6:03 PM CST
Civil Twilight 7:02 AM CST 6:28 PM CST
Nautical Twilight 6:34 AM CST 6:57 PM CST
Astronomical Twilight 6:05 AM CST 7:25 PM CST
Moon 10:44 PM CST (1/13) 10:13 AM CST (1/13)
Length of Visible Light 11h 26m
Length of Day
10h 35m
Waning Gibbous, 78% of the Moon is Illuminated
Jan 13
Waning Gibbous
Jan 16
Last Quarter
Jan 23
New
Jan 30
First Quarter
Feb 7
Full

Hourly Weather History & Observations

Time (CST) Temp. Windchill Dew Point Humidity Pressure Visibility Wind Dir Wind Speed Gust Speed Precip Events Conditions
12:15 AM 32.0 °F - 23.0 °F 69% 30.30 in 10.0 mi Calm Calm - N/A   Clear
12:35 AM 32.0 °F - 26.6 °F 80% 30.29 in 10.0 mi Calm Calm - N/A   Clear
12:55 AM 32.0 °F - 23.0 °F 69% 30.28 in 10.0 mi Calm Calm - N/A   Clear
1:15 AM 32.0 °F - 26.6 °F 80% 30.28 in 10.0 mi Calm Calm - N/A   Clear
1:35 AM 30.2 °F - 23.0 °F 75% 30.28 in 10.0 mi Calm Calm - N/A   Clear
1:55 AM 30.2 °F - 23.0 °F 75% 30.28 in 10.0 mi Calm Calm - N/A   Clear
2:15 AM 30.2 °F - 23.0 °F 75% 30.27 in 10.0 mi Calm Calm - N/A   Clear
2:35 AM 30.2 °F - 24.8 °F 80% 30.27 in 10.0 mi Calm Calm - N/A   Clear
2:55 AM 28.4 °F - 23.0 °F 80% 30.27 in 10.0 mi Calm Calm - N/A   Clear
3:15 AM 30.2 °F - 24.8 °F 80% 30.27 in 10.0 mi Calm Calm - N/A   Clear
3:35 AM 32.0 °F - 26.6 °F 80% 30.26 in 10.0 mi Calm Calm - N/A   Clear
3:55 AM 28.4 °F - 23.0 °F 80% 30.26 in 10.0 mi Calm Calm - N/A   Clear
4:15 AM 30.2 °F - 26.6 °F 86% 30.27 in 10.0 mi Calm Calm - N/A   Clear
4:35 AM 30.2 °F - 24.8 °F 80% 30.28 in 10.0 mi Calm Calm - N/A   Clear
4:55 AM 30.2 °F - 24.8 °F 80% 30.28 in 10.0 mi Calm Calm - N/A   Clear
5:15 AM 28.4 °F - 23.0 °F 80% 30.29 in 10.0 mi Calm Calm - N/A   Clear
5:55 AM 28.4 °F - 24.8 °F 86% 30.30 in 10.0 mi Calm Calm - N/A   Clear
6:15 AM 26.6 °F - 23.0 °F 86% 30.30 in 10.0 mi Calm Calm - N/A   Clear
6:35 AM 28.4 °F - 23.0 °F 80% 30.31 in 10.0 mi Calm Calm - N/A   Clear
6:55 AM 28.4 °F - 23.0 °F 80% 30.31 in 10.0 mi Calm Calm - N/A   Clear
7:15 AM 26.6 °F - 23.0 °F 86% 30.31 in 10.0 mi Calm Calm - N/A   Clear
7:35 AM 28.4 °F - 23.0 °F 80% 30.32 in 10.0 mi Calm Calm - N/A   Clear
7:55 AM 30.2 °F - 24.8 °F 80% 30.33 in 10.0 mi Calm Calm - N/A   Clear
8:15 AM 32.0 °F - 26.6 °F 80% 30.33 in 10.0 mi Calm Calm - N/A   Clear
8:35 AM 35.6 °F - 24.8 °F 65% 30.34 in 10.0 mi Calm Calm - N/A   Clear
8:55 AM 41.0 °F - 23.0 °F 49% 30.36 in 10.0 mi Calm Calm - N/A   Clear
9:15 AM 44.6 °F 43.1 °F 17.6 °F 34% 30.36 in 10.0 mi SSE 3.5 mph - N/A   Clear
9:35 AM 46.4 °F 44.3 °F 15.8 °F 29% 30.37 in 10.0 mi ESE 4.6 mph - N/A   Clear
9:55 AM 46.4 °F 44.3 °F 15.8 °F 29% 30.38 in 10.0 mi SE 4.6 mph - N/A   Clear
10:15 AM 48.2 °F - 17.6 °F 30% 30.38 in 10.0 mi SSE 3.5 mph - N/A   Clear
10:35 AM 50.0 °F - 17.6 °F 28% 30.37 in 10.0 mi East 4.6 mph - N/A   Clear
10:55 AM 51.8 °F - 15.8 °F 24% 30.35 in 10.0 mi East 5.8 mph - N/A   Clear
11:15 AM 53.6 °F - 15.8 °F 22% 30.35 in 10.0 mi East 5.8 mph - N/A   Clear
11:35 AM 53.6 °F - 14.0 °F 21% 30.34 in 10.0 mi ENE 5.8 mph - N/A   Clear
11:55 AM 55.4 °F - 14.0 °F 20% 30.33 in 10.0 mi ENE 4.6 mph - N/A   Clear
12:15 PM 53.6 °F - 12.2 °F 19% 30.32 in 10.0 mi ENE 5.8 mph - N/A   Clear
12:35 PM 55.4 °F - 12.2 °F 18% 30.30 in 10.0 mi SE 6.9 mph - N/A   Clear
12:55 PM 55.4 °F - 14.0 °F 20% 30.29 in 10.0 mi ENE 3.5 mph - N/A   Clear
1:15 PM 55.4 °F - 12.2 °F 18% 30.28 in 10.0 mi Calm Calm - N/A   Clear
1:35 PM 59.0 °F - 14.0 °F 17% 30.27 in 10.0 mi South 4.6 mph - N/A   Clear
2:15 PM 59.0 °F - 17.6 °F 20% 30.25 in 10.0 mi NE 3.5 mph - N/A   Clear
2:35 PM 59.0 °F - 17.6 °F 20% 30.25 in 10.0 mi Calm Calm - N/A   Clear
2:55 PM 59.0 °F - 17.6 °F 20% 30.24 in 10.0 mi Calm Calm - N/A   Clear
3:15 PM 59.0 °F - 17.6 °F 20% 30.24 in 10.0 mi Calm Calm - N/A   Clear
3:35 PM 59.0 °F - 17.6 °F 20% 30.24 in 10.0 mi Calm Calm - N/A   Clear
3:55 PM 59.0 °F - 19.4 °F 22% 30.24 in 10.0 mi Calm Calm - N/A   Clear
4:15 PM 59.0 °F - 17.6 °F 20% 30.24 in 10.0 mi South 3.5 mph - N/A   Clear
4:35 PM 59.0 °F - 17.6 °F 20% 30.25 in 10.0 mi Calm Calm - N/A   Clear
4:55 PM 59.0 °F - 17.6 °F 20% 30.25 in 10.0 mi WSW 3.5 mph - N/A   Clear
5:15 PM 59.0 °F - 17.6 °F 20% 30.25 in 10.0 mi SW 4.6 mph - N/A   Clear
5:35 PM 57.2 °F - 19.4 °F 23% 30.26 in 10.0 mi SW 4.6 mph - N/A   Clear
5:55 PM 53.6 °F - 19.4 °F 26% 30.27 in 10.0 mi SW 3.5 mph - N/A   Clear
6:15 PM 51.8 °F - 19.4 °F 28% 30.27 in 10.0 mi SSW 3.5 mph - N/A   Clear
6:35 PM 50.0 °F - 19.4 °F 30% 30.28 in 10.0 mi Calm Calm - N/A   Clear
6:55 PM 46.4 °F - 19.4 °F 34% 30.28 in 10.0 mi Calm Calm - N/A   Clear
7:15 PM 44.6 °F - 19.4 °F 37% 30.29 in 10.0 mi Calm Calm - N/A   Clear
7:35 PM 42.8 °F - 21.2 °F 42% 30.29 in 10.0 mi Calm Calm - N/A   Clear
7:55 PM 41.0 °F - 23.0 °F 49% 30.30 in 10.0 mi Calm Calm - N/A   Clear
8:15 PM 39.2 °F - 21.2 °F 49% 30.31 in 10.0 mi Calm Calm - N/A   Clear
8:35 PM 37.4 °F - 23.0 °F 56% 30.32 in 10.0 mi Calm Calm - N/A   Clear
8:55 PM 37.4 °F - 21.2 °F 52% 30.32 in 10.0 mi Calm Calm - N/A   Clear
9:15 PM 37.4 °F - 21.2 °F 52% 30.33 in 10.0 mi Calm Calm - N/A   Clear
9:35 PM 37.4 °F - 24.8 °F 60% 30.33 in 10.0 mi Calm Calm - N/A   Clear
9:55 PM 35.6 °F - 21.2 °F 56% 30.34 in 10.0 mi Calm Calm - N/A   Clear
10:15 PM 33.8 °F - 21.2 °F 60% 30.34 in 10.0 mi Calm Calm - N/A   Clear
10:35 PM 35.6 °F 32.8 °F 21.2 °F 56% 30.34 in 10.0 mi East 3.5 mph - N/A   Clear
10:55 PM 33.8 °F - 21.2 °F 60% 30.35 in 10.0 mi Calm Calm - N/A   Clear
11:15 PM 35.6 °F 32.8 °F 23.0 °F 60% 30.34 in 10.0 mi East 3.5 mph - N/A   Clear
11:35 PM 33.8 °F - 21.2 °F 60% 30.34 in 10.0 mi Calm Calm - N/A   Clear
11:55 PM 33.8 °F - 23.0 °F 65% 30.34 in 10.0 mi Calm Calm - N/A   Clear